Regional Weather Roundup
Issued by NWS Bismarck, ND

Home | Current Version | Previous Version | Text Only | Print | Product List | Glossary On
Versions: 1 2 3 4 5 6 7 8 9 10 11 12 13 14 15 16 17 18 19 20 21 22 23 24 25 26 27 28 29 30 31 32 33 34 35 36 37 38 39 40 41 42 43 44 45 46 47 48 49 50
000
ASUS43 KBIS 282310
RWRBIS

NWR BROADCAST TEXT
NATIONAL WEATHER SERVICE BISMARCK ND
600 PM CDT WED SEP 28 2016

NOTE: "FAIR" INDICATES FEW OR NO CLOUDS BELOW 12,000 FEET WITH NO
SIGNIFICANT WEATHER AND/OR OBSTRUCTIONS TO VISIBILITY.


CITY           SKY/WX    TMP DP  RH WIND       PRES   REMARKS
WILLISTON      SUNNY     76  51  41 SE8       30.24R
MINOT          SUNNY     68  37  32 E9        30.30R
MINOT AFB      SUNNY     68  38  32 E12       30.29R
BISMARCK       SUNNY     67  44  43 E7        30.30R
DICKINSON      SUNNY     71  44  37 SE14      30.26R
GARRISON         N/A     69  32  25 SE8       30.30R
HETTINGER ARPT SUNNY     75  44  33 E14       30.28R
JAMESTOWN      SUNNY     62  46  55 E6        30.33R HAZE
BEACH          FAIR      75  54  46 SE9       30.28S
CARRINGTON     FAIR      61  45  55 SE5       30.36R
HAZEN          FAIR      70  32  24 E6        30.31R
LINTON         FAIR      64  52  63 E9        30.33R
MANDAN         FAIR      66  41  39 SE9       30.31S
RUGBY          FAIR      61  48  63 SE8       30.33S
STANLEY        FAIR      70  39  32 SE14      30.31R
WATFORD CITY   FAIR      73  48  40 SE13      30.25S
$$

CITY           SKY/WX    TMP DP  RH WIND       PRES   REMARKS
GRAND FORKS    MOSUNNY   62  46  55 NE6       30.35R
GRAND FORKS AF MOSUNNY   59  46  62 E5        30.36R
DEVILS LAKE    MOSUNNY   61  46  59 CALM      30.35S HAZE
FARGO          PTSUNNY   65  46  50 NE8       30.33R
CANDO          FAIR      61  48  63 E7        30.36S
CAVALIER       FAIR      61  46  59 NE3       30.36R
GRAFTON        FAIR      61  46  59 CALM      30.38R
GWINNER        FAIR      61  46  59 NE9       30.33S
LANGDON        FAIR      63  46  55 CALM      30.35S
ROLLA          FAIR      63  45  51 E8        30.35R
WALHALLA       FAIR      59  57  94 NE3       30.36R
$$

CITY           SKY/WX    TMP DP  RH WIND       PRES   REMARKS
ABERDEEN       SUNNY     65  42  43 NE7       30.31R
MOBRIDGE       SUNNY     68  46  45 E8        30.28R
BUFFALO          N/A     79  47  32 SE13      30.19R
RAPID CITY     SUNNY     76  45  33 SE6       30.27R
GLASGOW        SUNNY     72  48  42 SE9       30.19F
SIDNEY         SUNNY     72  54  53 CALM      30.23S
WOLF POINT     SUNNY     74  50  42 E9        30.21F
GLENDIVE       SUNNY     72  54  53 E6        30.23F
MILES CITY     SUNNY     74  53  48 E5        30.20F
BAKER          SUNNY     75  51  43 SE9       30.25S
$$

CITY           SKY/WX    TMP DP  RH WIND       PRES   REMARKS
BILLINGS       SUNNY     71  51  49 E9        30.18F
GREAT FALLS    SUNNY     66  45  46 NE5       30.15F
REGINA         MOSUNNY   66  45  45 E14       30.26S
ESTEVAN        MOSUNNY   70  41  35 E15       30.27R
$$





USA.gov is the U.S. government's official web portal to all federal, state and local government web resources and services.